Regional Weather Roundup
Issued by NWS

Home | Current Version | Previous Version | Graphics & Text | Print | Product List | Glossary On
Versions: 1 2 3 4 5 6 7 8 9 10 11 12 13 14 15 16 17 18 19 20 21 22 23 24 25 26 27 28 29 30 31 32 33 34 35 36 37 38 39 40 41 42 43 44 45 46 47 48 49 50
000
ASUS43 KOAX 040302
RWRNE

WEATHER ROUNDUP FOR NEBRASKA
NATIONAL WEATHER SERVICE OMAHA NE
1000 PM CDT THU SEP 03 2015

NOTES: SATELLITE DATA IS BEING USED TO AUGMENT CLOUD COVER ABOVE
       12000 FEET.
       "FAIR" INDICATES FEW OR NO CLOUDS BELOW 12,000 FEET WITH NO
       SIGNIFICANT WEATHER AND/OR OBSTRUCTIONS TO VISIBILITY.

  * THESE STATIONS DO NOT REPORT WEATHER SUCH AS RAIN...SNOW OR FOG.

NEZ001>004-019>022-054>056-040400-
NEBRASKA PANHANDLE

CITY           SKY/WX    TMP DP  RH WIND       PRES   REMARKS
SCOTTSBLUFF    CLOUDY    73  55  53 W8        29.93R
ALLIANCE       CLOUDY    75  52  44 W12       29.87F
CHADRON        CLOUDY    81  46  29 S16G25    29.82R
KIMBALL        CLOUDY    64  54  69 NW9       29.96R
SIDNEY         LGT RAIN  73  51  46 W13       29.95R
$$

NEZ057>060-069>072-079>082-040400-
SOUTHWEST NEBRASKA

CITY           SKY/WX    TMP DP  RH WIND       PRES   REMARKS
NORTH PLATTE   CLOUDY    75  67  76 E7        29.78R
IMPERIAL       CLOUDY    80  55  42 W12       29.83R
LEXINGTON      CLOUDY    82  60  47 S10       29.79R
MCCOOK         CLOUDY    86  58  38 S13       29.77R
$$

NEZ005>010-023>029-035>040-094-040400-
NORTH CENTRAL NEBRASKA

CITY           SKY/WX    TMP DP  RH WIND       PRES   REMARKS
VALENTINE      CLOUDY    77  57  50 CALM      29.78R
AINSWORTH      CLOUDY    79  64  60 S5        29.80R
BROKEN BOW     CLOUDY    81  63  54 SE9       29.79R
ORD            MOCLDY    82  65  56 SE9       29.77R
$$

NEZ041-046>049-061>064-073>077-083>087-040400-
SOUTH CENTRAL NEBRASKA

CITY           SKY/WX    TMP DP  RH WIND       PRES   REMARKS
GRAND ISLAND   MOCLDY    80  65  59 S14       29.81R
AURORA         MOCLDY    79  65  61 S10       29.82R
HASTINGS       CLOUDY    82  63  52 S9        29.82R
HEBRON         MOCLDY    81  63  54 S9        29.83R
HOLDREGE       CLOUDY    79  58  48 SE8       29.81R
KEARNEY *      CLOUDY    79  61  53 S12       29.80R
YORK           MOCLDY    81  68  65 S12       29.83R
$$

NEZ011>018-030>034-042>045-040400-
NORTHEAST NEBRASKA

CITY           SKY/WX    TMP DP  RH WIND       PRES   REMARKS
NORFOLK        CLEAR     82  68  62 SE12      29.80R
ALBION         PTCLDY    78  67  68 SE8       29.80R
BLAIR          CLEAR     81  68  64 S10       29.85R
COLUMBUS *     CLEAR     81  64  57 SE7       29.81R
FREMONT        CLEAR     81  70  68 SE10      29.84R
TEKAMAH        CLEAR     77  73  87 SE9       29.82R
WAYNE          PTCLDY    78  73  84 SE10      29.81R
$$

NEZ050>053-065>068-078-088>093-040400-
SOUTHEAST NEBRASKA

CITY           SKY/WX    TMP DP  RH WIND       PRES   REMARKS
LINCOLN        PTCLDY    83  67  58 S13       29.83R
OMAHA EPPLEY   CLEAR     81  71  71 SE13      29.84R
BEATRICE       PTCLDY    81  67  62 SE8       29.85R
FALLS CITY     CLEAR     75  68  78 S8        29.87R
NEBRASKA CITY  FAIR      76  66  69 S8        29.87R
PLATTSMOUTH    FAIR      78  68  70 SE9       29.86R
$$

NEZ044-045-051>053-067-040400-
OMAHA AREA

CITY           SKY/WX    TMP DP  RH WIND       PRES   REMARKS
OMAHA EPPLEY   CLEAR     81  71  71 SE13      29.84R
BLAIR          CLEAR     81  68  64 S10       29.85R
FREMONT        CLEAR     81  70  68 SE10      29.84R
OFFUTT AFB     CLEAR     78  70  78 SE8       29.84R
PLATTSMOUTH    FAIR      78  68  70 SE9       29.86R
WAHOO          FAIR      77  70  80 S8        29.83R
$$




USA.gov is the U.S. government's official web portal to all federal, state and local government web resources and services.